Miscellaneous Local Product
Issued by NWS Hastings, NE

Home | Current Version | Previous Version | Graphics & Text | Print | Product List | Glossary On
Versions: 1 2 3 4 5 6 7 8 9 10 11 12 13 14 15 16 17 18 19 20 21 22 23 24 25 26 27 28 29 30 31 32 33 34 35 36 37 38 39 40 41 42 43 44 45 46 47 48 49 50
914
AXUS43 KGID 230102
MISGRI

GID CWA HOURLY WEATHER ROUNDUP
NATIONAL WEATHER SERVICE HASTINGS NE
800 PM CDT SUN OCT 22 2017

NOTE: "FAIR" INDICATES FEW OR NO CLOUDS BELOW 12,000 FEET WITH NO
SIGNIFICANT WEATHER AND/OR OBSTRUCTIONS TO VISIBILITY.

...SOUTH CENTRAL NEBRASKA...

CITY           SKY/WX    TMP DP  RH WIND       PRES   REMARKS
GRAND ISLAND   CLEAR     54  32  43 S9        29.99R
KEARNEY        CLEAR     55  27  34 S8        29.99S
HASTINGS       CLOUDY    57  28  33 S7        30.00S
ORD            CLEAR     48  33  56 S8        29.94R
YORK           CLOUDY    55  32  41 S7        29.99F
AURORA         CLEAR     59  30  32 S6        29.99S
LEXINGTON      CLOUDY    55  32  42 S6        29.98R
HOLDREGE       CLOUDY    57  28  33 S9        30.00R
HEBRON         CLEAR     54  32  43 S8        30.03R

...NEBRASKA PANHANDLE...

CITY           SKY/WX    TMP DP  RH WIND       PRES   REMARKS
CHADRON        CLEAR     55  25  31 CALM      29.93R
ALLIANCE       CLEAR     55  30  38 W13       29.97R
SCOTTSBLUFF    CLEAR     64  28  25 W16G31    30.00R
SIDNEY         CLOUDY    56  27  32 W9        30.04R

...WESTERN AND NORTH CENTRAL NEBRASKA...

CITY           SKY/WX    TMP DP  RH WIND       PRES   REMARKS
VALENTINE      CLOUDY    54  33  45 S6        29.89S
AINSWORTH      CLOUDY    50  37  60 S7        29.90F
ONEILL         CLEAR     53  37  54 S7        29.91S
BROKEN BOW     CLOUDY    45  35  68 SE3       29.95R
IMPERIAL       CLOUDY    54  29  38 SW7       30.01R
NORTH PLATTE   CLOUDY    54  36  50 CALM      29.97R
MCCOOK         CLOUDY    60  26  27 SW8       29.99R

...EASTERN NEBRASKA...

CITY           SKY/WX    TMP DP  RH WIND       PRES   REMARKS
NORFOLK        PTCLDY    57  31  37 S10       29.94S
SO SIOUX CITY  CLEAR     54  32  43 S8        29.94S
TEKAMAH        CLEAR     48  33  56 S8        29.97S
COLUMBUS       CLEAR     55  34  45 S6        29.98S
ALBION         PTCLDY    54  32  43 CALM      29.96R
OMAHA EPPLEY   CLEAR     57  35  43 S8        30.00S
OFFUTT AFB     CLEAR     48  39  71 SE3       30.00S
MILLARD        CLEAR     55  38  51 CALM      30.00S
LINCOLN        CLEAR     53  35  50 S8        30.01S
NEBRASKA CITY  CLEAR     54  35  48 S8        30.03S
BEATRICE       CLEAR     55  34  44 S8        30.03S
FALLS CITY     CLEAR     57  34  41 S7        30.04F

...NORTHERN KANSAS...

CITY           SKY/WX    TMP DP  RH WIND       PRES   REMARKS
GOODLAND       CLOUDY    60  23  24 SW9       30.05S
HILL CITY      CLOUDY    59  27  29 SW7       30.04S
NORTON         CLEAR     57  18  21 S10       30.01S
PHILLIPSBURG   CLEAR     55  27  33 S3        30.02R
SMITH CENTER   CLEAR     50  30  46 S9        30.03S
HAYS           CLOUDY    53  29  39 S8        30.05F
RUSSELL        CLOUDY    53  32  44 S10       30.04S
CONCORDIA      CLEAR     54  31  41 S10       30.04F
SALINA         CLEAR     56  37  49 SE5       30.07S
TOPEKA         CLEAR     53  43  68 CALM      30.08S



USA.gov is the U.S. government's official web portal to all federal, state and local government web resources and services.